Regional Weather Roundup
Issued by NWS Columbia, SC

Home | Current Version | Previous Version | Text Only | Print | Product List | Glossary On
Versions: 1 2 3 4 5 6 7 8 9 10 11 12 13 14 15 16 17 18 19 20 21 22 23 24 25 26 27 28 29 30 31 32 33 34 35 36 37 38 39 40 41 42 43 44 45 46 47 48 49 50
460
ASUS42 KCAE 251010
RWRCAE
REGIONAL WEATHER ROUNDUP
NATIONAL WEATHER SERVICE COLUMBIA SC
600 AM EDT MON JUL 25 2016

NOTE: "FAIR" INDICATES FEW OR NO CLOUDS BELOW 12,000 FEET WITH NO
SIGNIFICANT WEATHER AND/OR OBSTRUCTIONS TO VISIBILITY.

NOT ALL STATIONS ARE QUALITY CONTROLLED BY THE NATIONAL
WEATHER SERVICE. USE DATA WITH CAUTION...ESPECIALLY
DEWPOINT OBSERVATIONS.

SCZ001>056-GAZ040-063>065-077-251100-
...UPSTATE SOUTH CAROLINA...

CITY           SKY/WX    TMP DP  RH WIND       PRES   REMARKS
ANDERSON       CLEAR     75  71  87 S3        30.05S
LIBERTY        SUNNY     71  70  97 CALM      30.06R
SPARTANBURG    CLEAR     73  70  88 CALM      30.05S
CLEMSON        CLEAR     78  72  81 S3        30.07R
GREENVILLE     CLEAR     78  70  76 SW3       30.07R
GREENWOOD      PTCLDY    76  69  79 S3        30.07R
GREER          CLEAR     76  70  82 SW7       30.05R
ROCK HILL      CLEAR     74  72  93 SW5       30.06R
CHESTER        MOSUNNY   75  70  83 CALM      30.06S
LAURENS        MOSUNNY   73  72  94 SW3       30.05S


...CENTRAL SOUTH CAROLINA...

CITY           SKY/WX    TMP DP  RH WIND       PRES   REMARKS
COLUMBIA APT   PTCLDY    80  72  76 CALM      30.05R
COLUMBIA OWENS PTCLDY    79  74  84 CALM        N/A
MCENTIRE ANGB  PTCLDY    76  73  91 S1        30.06R
ORANGEBURG     PTCLDY    76  74  93 CALM      30.06R
SUMTER SHAW    MOCLDY    77  73  87 S5        30.04R
NEWBERRY       SUNNY     75  72  88 S3        30.08S
AIKEN          PTSUNNY   77  70  78 S6        30.09R
MANNING        FAIR      77  72  83 CALM      30.06R
LANCASTER      MOSUNNY   77  75  94 CALM      30.06R
WINNSBORO      SUNNY     77  72  83 S5        30.06


...EASTERN AND COASTAL SOUTH CAROLINA...

CITY           SKY/WX    TMP DP  RH WIND       PRES   REMARKS
MYRTLE BEACH   PTCLDY    81  70  69 CALM      30.08R
N MYRTLE BCH   MOCLDY    80  77  90 W5        30.06R
CONWAY         PTSUNNY   75  73  94 CALM      30.07R
MARION           N/A     75  73  94 CALM      30.06R
HARTSVILLE     FAIR      73  72  94 CALM      30.05R
FLORENCE       MOCLDY    78  75  90 S5        30.06R
DARLINGTON     PTCLDY    77  75  93 SW5       30.06R
CHARLESTON APT PTCLDY    79  74  84 SE3       30.05R
MOUNT PLEASANT FAIR      77  75  94 CALM      30.06R
WALTERBORO     SUNNY     77  77 100 CALM      30.06R
BEAUFORT       CLEAR     78  74  87 CALM      30.05R


...EASTERN GEORGIA...

CITY           SKY/WX    TMP DP  RH WIND       PRES   REMARKS
AUGUSTA BUSH F CLOUDY    75  72  90 CALM      30.04R
AUGUSTA DANIEL CLOUDY    80  70  71 S5        30.06R
WASHINGTON     FAIR      77  73  88 CALM      30.05R
CLAXTON        FAIR      72  72 100 CALM      30.05R
STATESBORO     CLEAR     75  73  94 CALM      30.05R
SAVANNAH       PTCLDY    77  72  84 CALM      30.05R


...SOUTHERN NORTH CAROLINA...

CITY           SKY/WX    TMP DP  RH WIND       PRES   REMARKS
CHARLOTTE      PTCLDY    77  70  79 S3        30.06R
MONROE         CLEAR     75  71  87 SW5       30.05R
ROCKINGHAM     MOSUNNY   76  75  96 S3        30.05R
RUTHERFORDTON    N/A     72  72 100 CALM      30.08R
ASHEVILLE      CLEAR     69  66  90 NW3       30.15R

$$




USA.gov is the U.S. government's official web portal to all federal, state and local government web resources and services.